Cloud_Cover
1 2 24 5 3 4 5 5 4 0 0 0 0 3 18 6 100 90 72 94 30 0 0 0 0 65 21 16 100 100 100 100 100 94 73 3 5 62 100 100 100 100 100
5 5 5 5 5 5 5 5 2 5 5 5 5 91 100 100 100 7 0 0 0 0 0 0 0 0 0 0 3 4 3 4 100 100 100 82 100 99 87 100 100 100 46
9 5 6 5 5 5 6 5 4 2 84 81 100 100 100 100 71 0 0 0 0 0 0 0 0 0 0 0 0 0 0 0 0 100 100 100 100 25 8 89 5 42 100
85 68 18 15 70 100 95 9 43 78 100 100 100 100 100 17 0 0 0 0 0 0 0 0 5 3 0 0 0 0 0 0 0 0 8 68 100 100 59 100 38 20 70
97 39 81 100 100 100 100 54 92 100 100 100 100 100 50 1 0 0 0 0 0 2 2 0 0 0 0 0 0 0 0 0 0 0 0 0 99 100 100 100 100 8 23
69 85 100 74 100 100 100 100 100 100 100 100 56 11 5 0 0 0 0 0 0 0 0 0 0 0 0 0 0 0 0 0 0 0 0 0 5 100 100 100 100 98 60
90 99 100 100 100 100 100 100 100 100 100 100 90 2 0 0 0 0 0 0 0 0 0 0 0 0 0 0 0 0 0 0 0 0 2 0 22 55 100 100 100 97 96
100 100 100 100 100 100 100 100 100 100 100 100 6 4 0 0 0 0 0 0 0 0 0 0 0 0 0 0 0 0 0 0 0 0 53 48 0 0 49 100 100 52 95
100 100 100 100 100 100 100 100 100 100 100 30 0 0 0 0 0 0 0 0 0 0 0 0 0 0 0 0 0 0 0 0 0 0 46 14 0 0 16 100 28 100 98
100 100 100 100 100 100 100 100 100 34 6 0 0 0 0 0 0 0 0 0 0 0 0 0 0 0 0 0 0 0 0 0 0 0 0 27 23 0 6 96 100 100 93
100 100 100 100 100 100 100 100 83 15 0 0 0 0 32 50 50 95 0 0 0 0 0 0 0 0 0 0 0 0 0 0 0 0 0 0 0 0 0 1 2 93 100
100 100 100 100 100 100 100 25 5 0 0 0 0 0 80 4 30 0 20 0 0 0 0 0 0 0 0 0 0 0 0 0 0 0 0 0 0 0 0 0 0 83 100
100 100 100 100 100 95 5 36 57 0 0 0 1 0 0 0 18 0 0 0 0 0 0 0 0 0 0 0 0 0 0 0 0 0 0 0 0 0 0 0 0 4 63
100 100 100 100 59 67 4 0 0 0 0 0 0 0 0 0 0 0 0 0 0 0 0 0 0 0 0 0 0 0 0 0 0 0 0 0 0 0 0 5 0 0 100
100 100 94 81 3 0 0 0 0 0 0 0 0 0 0 0 0 0 0 0 0 0 0 0 0 0 0 0 0 0 0 0 0 0 0 0 0 0 0 0 5 5 9
80 16 40 72 100 52 0 0 0 0 0 0 0 0 0 0 0 0 0 0 0 0 0 0 0 0 0 0 0 0 0 0 0 0 0 1 2 0 0 0 0 5 5
99 31 4 59 100 10 0 0 0 0 5 0 3 5 5 0 0 0 0 0 0 0 0 0 0 0 0 0 0 0 0 0 0 0 0 0 0 0 0 0 0 2 5
5 78 74 96 29 0 0 0 0 0 4 5 5 5 2 0 5 2 4 0 0 2 5 5 4 0 0 0 0 0 0 0 3 3 1 4 0 0 0 0 0 1 1
4 2 0 1 0 7 0 1 3 3 6 16 70 5 5 5 5 5 3 2 0 1 1 0 0 0 5 4 5 5 5 5 3 2 4 1 1 2 5 8 2 0 2
0 0 0 0 3 12 1 4 5 5 5 68 46 5 5 5 5 5 4 5 5 5 4 5 5 5 5 5 5 5 6 5 5 5 5 4 5 3 0 5 4 4 1
0 0 0 3 5 5 5 74 49 49 84 80 92 82 5 43 53 5 5 5 5 4 1 5 5 1 4 2 2 5 5 5 5 46 97 100 30 5 4 0 0 4 0
0 0 5 66 98 70 59 60 68 5 94 99 97 68 12 62 60 71 5 0 0 0 1 0 1 0 0 4 8 11 24 43 86 81 100 100 90 38 5 3 5 3 5
2 32 99 43 5 74 43 4 5 5 78 96 26 90 80 23 7 3 2 3 4 5 5 5 5 5 5 87 100 100 100 100 100 100 100 100 100 95 100 100 98 58 10
8 6 5 5 3 1 5 5 36 54 22 5 6 5 5 5 78 91 96 75 74 12 5 5 36 93 87 58 100 100 55 30 13 12 46 99 70 5 6 93 100 100 100
2 5 5 5 4 5 5 5 5 5 5 11 30 76 62 60 69 100 94 38 74 28 58 97 100 100 100 92 22 5 6 5 18 26 6 2 26 20 16 13 94 85 55
4 4 5 4 5 5 47 17 89 75 100 100 100 100 100 100 100 100 100 100 90 97 100 100 100 73 100 100 100 77 97 100 99 100 99 100 83 5 24 42 5 100 96